This demonstration page uses our WeatherBlox Daily Observations layout. Learn more.

Left ArrowRight Arrow

40.92945, -100.16068

Hourly Observations for December 6, 2020

Temp ( °F °C ) Dew Point ( °F °C ) Humidity (%) Winds ( mph kmh ) Pressure ( in mb ) Visibility ( mi km ) Precip ( " mm )
12:15 am 00:15 Clear 29 -1.7 21 -6.3 71 71 WNW 12 19 30.31 1027 10 16.0934 0 0
12:35 am 00:35 Clear 29 -1.9 21 -6.3 72 72 WNW 12 19 30.31 1026 10 16.0934 0 0
12:55 am 00:55 Clear 29 -1.7 21 -6.1 72 72 WNW 12 19 30.3 1026 10 16.0934 0 0
1:15 am 01:15 Clear 29 -1.5 21 -6.1 71 71 WNW 12 19 30.3 1026 10 16.0934 0 0
1:35 am 01:35 Clear 29 -1.5 21 -6.2 71 71 WNW 13 20 30.29 1026 10 16.0934 0 0
1:55 am 01:55 Clear 29 -1.9 20 -6.5 71 71 WNW 10 17 30.3 1026 10 16.0934 0 0
2:15 am 02:15 Clear 28 -2.5 20 -6.5 74 74 WNW 10 17 30.31 1027 10 16.0934 0 0
2:35 am 02:35 Clear 28 -2.5 20 -6.5 74 74 WNW 9 15 30.31 1027 10 16.0934 0 0
2:55 am 02:55 Clear 27 -3 20 -6.7 76 76 WNW 8 13 30.32 1027 10 16.0934 0 0
3:15 am 03:15 Clear 27 -3 20 -6.7 76 76 WNW 7 11 30.33 1027 10 16.0934 0 0
3:35 am 03:35 Clear 26 -3.1 20 -6.7 76 76 WNW 9 15 30.33 1027 10 16.0934 0 0
3:55 am 03:55 Clear 27 -3 19 -7 74 74 WNW 9 15 30.32 1027 10 16.0934 0 0
4:15 am 04:15 Clear 25 -4 19 -7.3 78 78 WNW 8 13 30.33 1027 10 16.0934 0 0
4:35 am 04:35 Clear 24 -4.5 19 -7.5 80 80 WNW 10 17 30.33 1027 10 16.0934 0 0
4:55 am 04:55 Clear 24 -4.5 19 -7.4 80 80 W 8 13 30.32 1027 10 16.0934 0 0
5:15 am 05:15 Clear 25 -3.7 19 -7 78 78 WNW 9 15 30.32 1027 10 16.0934 0 0
5:35 am 05:35 Clear 25 -3.7 19 -7 78 78 WNW 10 17 30.32 1027 10 16.0934 0 0
5:55 am 05:55 Clear 24 -4.3 19 -7.2 80 80 WNW 9 15 30.32 1027 10 16.0934 0 0
6:15 am 06:15 Clear 24 -4.2 19 -7.3 79 79 WNW 10 17 30.32 1027 10 16.0934 0 0
6:35 am 06:35 Clear 24 -4.2 19 -7.3 79 79 WNW 9 15 30.31 1026 10 16.0934 0 0
6:55 am 06:55 Clear 24 -4.4 19 -7.3 80 80 WNW 9 15 30.32 1027 10 16.0934 0 0
7:15 am 07:15 Clear 25 -4.1 19 -7.2 79 79 WNW 9 15 30.32 1027 10 16.0934 0 0
7:35 am 07:35 Clear 24 -4.6 19 -7.3 82 82 WNW 5 7 30.32 1027 10 16.0934 0 0
7:55 am 07:55 Sunny 24 -4.7 19 -7.5 81 81 NW 5 7 30.33 1027 10 16.0934 0 0
8:15 am 08:15 Sunny 24 -4.6 19 -7.5 80 80 WNW 7 11 30.32 1027 10 16.0934 0 0
8:35 am 08:35 Sunny 25 -4.1 19 -7.1 80 80 NW 5 7 30.32 1027 10 16.0934 0 0
8:55 am 08:55 Sunny 27 -3 20 -6.9 75 75 NW 6 9 30.31 1026 10 16.0934 0 0
9:15 am 09:15 Sunny 29 -1.9 20 -6.4 72 72 NW 7 11 30.31 1026 10 16.0934 0 0
9:35 am 09:35 Sunny 31 -0.7 21 -5.9 68 68 WNW 6 9 30.29 1026 10 16.0934 0 0
9:55 am 09:55 Sunny 32 0.1 22 -5.3 67 67 W 6 9 30.3 1026 10 16.0934 0 0
10:15 am 10:15 Sunny 35 1.6 24 -4.7 63 63 WNW 6 9 30.28 1025 10 16.0934 0 0
10:35 am 10:35 Sunny 37 2.8 24 -4.2 60 60 NW 5 7 30.27 1025 10 16.0934 0 0
10:55 am 10:55 Sunny 39 4.1 26 -3.6 58 58 NNW 3 6 30.26 1025 10 16.0934 0 0
11:15 am 11:15 Sunny 42 5.3 26 -3.3 54 54 Calm 30.24 1024 10 16.0934 0 0
11:35 am 11:35 Sunny 43 6.3 27 -3 52 52 W 3 6 30.22 1023 10 16.0934 0 0
11:55 am 11:55 Sunny 46 7.5 28 -2.5 49 49 Calm 30.2 1023 10 16.0934 0 0
12:15 pm 12:15 Sunny 48 8.8 28 -2.2 46 46 N 3 6 30.18 1022 10 16.0934 0 0
12:35 pm 12:35 Sunny 48 9 28 -2.5 45 45 NE 5 7 30.18 1022 10 16.0934 0 0
12:55 pm 12:55 Sunny 49 9.4 27 -2.6 43 43 N 5 7 30.17 1022 10 16.0934 0 0
1:15 pm 13:15 Sunny 50 10.1 27 -2.6 41 41 Calm 30.15 1021 10 16.0934 0 0
1:35 pm 13:35 Sunny 50 10 27 -3 40 40 Calm 30.15 1021 10 16.0934 0 0
1:55 pm 13:55 Sunny 52 11.1 27 -2.6 39 39 W 3 6 30.13 1020 10 16.0934 0 0
2:15 pm 14:15 Sunny 52 11.1 27 -3 37 37 NW 5 7 30.13 1020 10 16.0934 0 0
2:35 pm 14:35 Sunny 52 11.3 27 -2.8 37 37 Calm 30.12 1020 10 16.0934 0 0
2:55 pm 14:55 Sunny 53 11.5 26 -3.1 36 36 Calm 30.12 1020 10 16.0934 0 0
3:15 pm 15:15 Sunny 53 11.6 27 -2.7 37 37 W 6 9 30.12 1020 10 16.0934 0 0
3:35 pm 15:35 Sunny 53 11.5 27 -2.7 37 37 W 5 7 30.12 1020 10 16.0934 0 0
3:55 pm 15:55 Sunny 53 11.5 27 -2.9 37 37 W 3 6 30.12 1020 10 16.0934 0 0
4:15 pm 16:15 Sunny 53 11.4 27 -2.6 38 38 NW 3 6 30.12 1020 10 16.0934 0 0
4:35 pm 16:35 Sunny 51 10.8 27 -2.6 39 39 Calm 30.13 1020 10 16.0934 0 0
4:55 pm 16:55 Sunny 50 10 27 -2.8 41 41 Calm 30.14 1021 10 16.0934 0 0
5:15 pm 17:15 Clear 48 8.9 27 -2.7 44 44 Calm 30.15 1021 10 16.0934 0 0
5:35 pm 17:35 Clear 42 5.7 25 -3.7 51 51 Calm 30.18 1022 10 16.0934 0 0
5:55 pm 17:55 Clear 41 4.8 25 -3.9 54 54 Calm 30.19 1022 10 16.0934 0 0
6:15 pm 18:15 Clear 40 4.3 25 -3.9 56 56 Calm 30.2 1023 10 16.0934 0 0
6:35 pm 18:35 Clear 39 3.8 25 -4.1 57 57 Calm 30.2 1023 10 16.0934 0 0
6:55 pm 18:55 Clear 37 2.6 25 -3.7 64 64 Calm 30.21 1023 10 16.0934 0 0
7:15 pm 19:15 Clear 33 0.6 23 -4.8 67 67 Calm 30.23 1024 10 16.0934 0 0
7:35 pm 19:35 Clear 31 -0.4 22 -5.7 68 68 Calm 30.24 1024 10 16.0934 0 0
7:55 pm 19:55 Clear 29 -1.4 21 -6.2 70 70 Calm 30.26 1025 10 16.0934 0 0
8:15 pm 20:15 Clear 28 -2 20 -6.5 72 72 Calm 30.27 1025 10 16.0934 0 0
8:35 pm 20:35 Clear 28 -2.5 20 -6.8 73 73 N 3 6 30.27 1025 10 16.0934 0 0
8:55 pm 20:55 Clear 27 -2.8 19 -7.1 73 73 Calm 30.28 1025 10 16.0934 0 0
9:15 pm 21:15 Clear 26 -3.5 18 -7.6 74 74 Calm 30.28 1025 10 16.0934 0 0
9:35 pm 21:35 Clear 26 -3.2 20 -6.5 78 78 WNW 5 7 30.29 1026 10 16.0934 0 0
9:55 pm 21:55 Clear 26 -3.4 20 -6.9 77 77 W 7 11 30.29 1026 10 16.0934 0 0
10:15 pm 22:15 Clear 26 -3.6 20 -6.5 81 81 W 7 11 30.28 1026 10 16.0934 0 0
10:35 pm 22:35 Clear 26 -3.3 20 -6.5 79 79 W 6 9 30.29 1026 10 16.0934 0 0
10:55 pm 22:55 Clear 26 -3.5 20 -6.6 79 79 W 6 9 30.29 1026 10 16.0934 0 0
11:15 pm 23:15 Clear 24 -4.2 20 -6.8 82 82 NW 6 9 30.3 1026 10 16.0934 0 0
11:35 pm 23:35 Clear 25 -3.8 20 -6.5 82 82 WNW 7 11 30.3 1026 10 16.0934 0 0
11:55 pm 23:55 Clear 24 -4.5 19 -7.1 82 82 NW 6 9 30.29 1026 10 16.0934 0 0

Powered by AerisWeather